Location: Helion Bumpstead
(52.0500°N, 0.4000°E)
Time: 22:37:00
(UTC+00:00)

Cosmos 1725 Rocket - Pass Details

Date: 20 February 2026
Orbit: 962 x 989 km, 82.9° (Epoch: 11 March)

Event Time Altitude Azimuth Distance (km) Brightness Sun altitude
Rises 04:29:32 0° 143° (SE) 3,637 7.3 -24.3°
Reaches altitude 10° 04:32:32 10° 130° (SE) 2,697 6.8 -23.8°
Maximum altitude 04:37:10 23° 81° (E) 1,938 6.4 -23.1°
Drops below altitude 10° 04:41:50 10° 32° (NNE) 2,720 6.9 -22.4°
Sets 04:44:51 0° 18° (NNE) 3,676 7.4 -22.0°
